Flag for U.S.A. Weather past 2 weeks in Naples, Florida, U.S.A.

Now
82 °F

Passing clouds.


Feels Like: 86 °F
Forecast: 75 / 83 °F
Wind: 8 mph from West

Location: Naples Municipal

Current Time: Apr 21, 2015 at 5:11:50 PM

Latest Report: Apr 21, 2015 at 4:53 PM


Visibility: 10 mi

Pressure: 29.92 "Hg

Humidity: 67%

Dew point: 70 °F

Location of NaplesLocation

Historic Weather in Naples — Graph

°F

Naples temperature yesterday

Maximum temperature yesterday: 88 °F (at 12:53 PM)
Minimum temperature yesterday: 76 °F (at 6:53 AM)
Average temperature yesterday: 82 °F

Past Weeks' High & Low Weather Summary

 TemperatureHumidityPressure
High89 °F (Apr 10, 1:53 PM)97% (Apr 9, 6:53 AM)30.16 "Hg (Apr 9, 6:53 AM)
Low67 °F (Apr 9, 6:53 AM)43% (Apr 8, 1:53 PM)29.86 "Hg (Apr 20, 3:53 PM)
Average79 °F77%30.04 "Hg
* Reported Apr 6 3:53 PM — Apr 21 3:53 PM, Naples, Weather by CustomWeather, © 2015

Note: Actual official high and low records may vary slightly from our data, if they occured in-between our weather recording intervals... More about our weather records

Advertising

Naples weather history for previous 24 hours

 ConditionsComfort  
Time TempWeatherWind HumidityBarometerVisibility
3:53 PM
Tue, Apr 21
82 °FOvercast.10 mph65%29.94 "Hg10 mi
2:53 PM84 °FMostly cloudy.8 mph57%29.95 "Hg10 mi
1:53 PM86 °FScattered clouds.7 mph53%29.96 "Hg10 mi
12:53 PM85 °FMostly cloudy.3 mph57%29.98 "Hg10 mi
11:53 AM82 °FMostly cloudy.No wind67%29.99 "Hg10 mi
10:53 AM80 °FScattered clouds.3 mph76%29.99 "Hg10 mi
9:53 AM78 °FMore clouds than sun.No wind79%29.98 "Hg10 mi
8:53 AM76 °FCloudy.No wind91%29.97 "Hg8 mi
7:53 AM75 °FLight rain. Fog.5 mph90%29.96 "Hg4 mi
6:53 AM74 °FMostly cloudy.5 mph91%29.95 "Hg10 mi
5:53 AM79 °FPassing clouds.8 mph84%29.92 "Hg10 mi
4:53 AM77 °FMostly cloudy.6 mph90%29.91 "Hg7 mi
3:53 AM80 °FOvercast.7 mph81%29.91 "Hg10 mi
2:53 AM79 °FPassing clouds.3 mph84%29.91 "Hg9 mi
1:53 AM80 °FPassing clouds.No wind81%29.92 "Hg10 mi
12:53 AM80 °FClear.5 mph81%29.91 "Hg10 mi
11:53 PM
Mon, Apr 20
81 °FClear.3 mph79%29.93 "Hg10 mi
10:53 PM81 °FClear.3 mph79%29.94 "Hg10 mi
9:53 PM81 °FPassing clouds.7 mph82%29.93 "Hg9 mi
8:53 PM82 °FPartly cloudy.7 mph79%29.91 "Hg10 mi
7:53 PM82 °FPartly sunny.12 mph77%29.90 "Hg7 mi
6:53 PM83 °FPartly sunny.13 mph77%29.88 "Hg10 mi
5:53 PM84 °FBroken clouds.16 mph74%29.87 "Hg10 mi
Weather by CustomWeather, © 2015

See weather overviewHow to use our weather pages